Year,Month,Day,Hour,Minute,Value (Times are PST for temperature in C)
2013,05,05,00,00,18.50
2013,05,05,00,01,18.50
2013,05,05,00,02,18.60
2013,05,05,00,03,18.60
2013,05,05,00,04,18.70
2013,05,05,00,05,18.70
2013,05,05,00,06,18.70
2013,05,05,00,07,18.80
2013,05,05,00,08,18.80
2013,05,05,00,09,18.80
2013,05,05,00,10,18.80
2013,05,05,00,11,18.70
2013,05,05,00,12,18.70
2013,05,05,00,13,18.70
2013,05,05,00,14,18.70
2013,05,05,00,15,18.60
2013,05,05,00,16,18.60
2013,05,05,00,17,18.60
2013,05,05,00,18,18.50
2013,05,05,00,19,18.50
2013,05,05,00,20,18.50
2013,05,05,00,21,18.50
2013,05,05,00,22,18.50
2013,05,05,00,23,18.40
2013,05,05,00,24,18.40
2013,05,05,00,25,18.40
2013,05,05,00,26,18.40
2013,05,05,00,27,18.30
2013,05,05,00,28,18.30
2013,05,05,00,29,18.20
2013,05,05,00,30,18.20
2013,05,05,00,31,18.10
2013,05,05,00,32,18.10
2013,05,05,00,33,18.00
2013,05,05,00,34,17.90
2013,05,05,00,35,17.90
2013,05,05,00,36,17.90
2013,05,05,00,37,17.80
2013,05,05,00,38,17.80
2013,05,05,00,39,17.80
2013,05,05,00,40,17.80
2013,05,05,00,41,17.80
2013,05,05,00,42,17.80
2013,05,05,00,43,17.90
2013,05,05,00,44,17.90
2013,05,05,00,45,17.90
2013,05,05,00,46,17.90
2013,05,05,00,47,18.00
2013,05,05,00,48,18.10
2013,05,05,00,49,18.10
2013,05,05,00,50,18.20
2013,05,05,00,51,18.20
2013,05,05,00,52,18.20
2013,05,05,00,53,18.20
2013,05,05,00,54,18.20
2013,05,05,00,55,18.20
2013,05,05,00,56,18.20
2013,05,05,00,57,18.10
2013,05,05,00,58,18.10
2013,05,05,00,59,18.10
2013,05,05,01,00,18.00
2013,05,05,01,01,17.90
2013,05,05,01,02,17.90
2013,05,05,01,03,17.90
2013,05,05,01,04,17.80
2013,05,05,01,05,17.80
2013,05,05,01,06,17.80
2013,05,05,01,07,17.90
2013,05,05,01,08,17.90
2013,05,05,01,09,17.90
2013,05,05,01,10,17.90
2013,05,05,01,11,17.90
2013,05,05,01,12,17.90
2013,05,05,01,13,17.90
2013,05,05,01,14,18.00
2013,05,05,01,15,18.20
2013,05,05,01,16,18.20
2013,05,05,01,17,18.30
2013,05,05,01,18,18.40
2013,05,05,01,19,18.40
2013,05,05,01,20,18.50
2013,05,05,01,21,18.50
2013,05,05,01,22,18.50
2013,05,05,01,23,18.60
2013,05,05,01,24,18.60
2013,05,05,01,25,18.60
2013,05,05,01,26,18.60
2013,05,05,01,27,18.60
2013,05,05,01,28,18.70
2013,05,05,01,29,18.70
2013,05,05,01,30,18.70
2013,05,05,01,31,18.70
2013,05,05,01,32,18.70
2013,05,05,01,33,18.70
2013,05,05,01,34,18.70
2013,05,05,01,35,18.70
2013,05,05,01,36,18.70
2013,05,05,01,37,18.70
2013,05,05,01,38,18.70
2013,05,05,01,39,18.70
2013,05,05,01,40,18.70
2013,05,05,01,41,18.70
2013,05,05,01,42,18.70
2013,05,05,01,43,18.70
2013,05,05,01,44,18.60
2013,05,05,01,45,18.60
2013,05,05,01,46,18.60
2013,05,05,01,47,18.60
2013,05,05,01,48,18.60
2013,05,05,01,49,18.50
2013,05,05,01,50,18.50
2013,05,05,01,51,18.50
2013,05,05,01,52,18.50
2013,05,05,01,53,18.40
2013,05,05,01,54,18.40
2013,05,05,01,55,18.40
2013,05,05,01,56,18.40
2013,05,05,01,57,18.40
2013,05,05,01,58,18.50
2013,05,05,01,59,18.50
2013,05,05,02,00,18.50
2013,05,05,02,01,18.50
2013,05,05,02,02,18.50
2013,05,05,02,03,18.50
2013,05,05,02,04,18.40
2013,05,05,02,05,18.40
2013,05,05,02,06,18.40
2013,05,05,02,07,18.40
2013,05,05,02,08,18.30
2013,05,05,02,09,18.30
2013,05,05,02,10,18.30
2013,05,05,02,11,18.30
2013,05,05,02,12,18.30
2013,05,05,02,13,18.20
2013,05,05,02,14,18.20
2013,05,05,02,15,18.20
2013,05,05,02,16,18.20
2013,05,05,02,17,18.20
2013,05,05,02,18,18.20
2013,05,05,02,19,18.20
2013,05,05,02,20,18.20
2013,05,05,02,21,18.20
2013,05,05,02,22,18.20
2013,05,05,02,23,18.10
2013,05,05,02,24,18.10
2013,05,05,02,25,18.10
2013,05,05,02,26,18.10
2013,05,05,02,27,18.10
2013,05,05,02,28,18.10
2013,05,05,02,29,18.10
2013,05,05,02,30,18.00
2013,05,05,02,31,17.90
2013,05,05,02,32,17.90
2013,05,05,02,33,17.90
2013,05,05,02,34,17.90
2013,05,05,02,35,17.90
2013,05,05,02,36,17.90
2013,05,05,02,37,17.90
2013,05,05,02,38,17.90
2013,05,05,02,39,17.90
2013,05,05,02,40,17.90
2013,05,05,02,41,17.90
2013,05,05,02,42,17.80
2013,05,05,02,43,17.80
2013,05,05,02,44,17.80
2013,05,05,02,45,17.70
2013,05,05,02,46,17.70
2013,05,05,02,47,17.70
2013,05,05,02,48,17.70
2013,05,05,02,49,17.60
2013,05,05,02,50,17.60
2013,05,05,02,51,17.60
2013,05,05,02,52,17.50
2013,05,05,02,53,17.50
2013,05,05,02,54,17.50
2013,05,05,02,55,17.40
2013,05,05,02,56,17.40
2013,05,05,02,57,17.40
2013,05,05,02,58,17.30
2013,05,05,02,59,17.30
2013,05,05,03,00,17.30
2013,05,05,03,01,17.30
2013,05,05,03,02,17.30
2013,05,05,03,03,17.20
2013,05,05,03,04,17.20
2013,05,05,03,05,17.20
2013,05,05,03,06,17.10
2013,05,05,03,07,17.10
2013,05,05,03,08,17.10
2013,05,05,03,09,17.00
2013,05,05,03,10,17.00
2013,05,05,03,11,17.00
2013,05,05,03,12,16.90
2013,05,05,03,13,16.90
2013,05,05,03,14,16.90
2013,05,05,03,15,16.80
2013,05,05,03,16,16.80
2013,05,05,03,17,16.80
2013,05,05,03,18,16.80
2013,05,05,03,19,16.80
2013,05,05,03,20,16.70
2013,05,05,03,21,16.70
2013,05,05,03,22,16.70
2013,05,05,03,23,16.80
2013,05,05,03,24,16.80
2013,05,05,03,25,16.80
2013,05,05,03,26,16.80
2013,05,05,03,27,16.80
2013,05,05,03,28,16.80
2013,05,05,03,29,16.80
2013,05,05,03,30,16.80
2013,05,05,03,31,16.80
2013,05,05,03,32,16.80
2013,05,05,03,33,16.80
2013,05,05,03,34,16.80
2013,05,05,03,35,16.80
2013,05,05,03,36,16.80
2013,05,05,03,37,16.70
2013,05,05,03,38,16.70
2013,05,05,03,39,16.70
2013,05,05,03,40,16.70
2013,05,05,03,41,16.70
2013,05,05,03,42,16.70
2013,05,05,03,43,16.70
2013,05,05,03,44,16.70
2013,05,05,03,45,16.70
2013,05,05,03,46,16.70
2013,05,05,03,47,16.70
2013,05,05,03,48,16.70
2013,05,05,03,49,16.70
2013,05,05,03,50,16.70
2013,05,05,03,51,16.70
2013,05,05,03,52,16.70
2013,05,05,03,53,16.70
2013,05,05,03,54,16.70
2013,05,05,03,55,16.70
2013,05,05,03,56,16.70
2013,05,05,03,57,16.70
2013,05,05,03,58,16.70
2013,05,05,03,59,16.70
2013,05,05,04,00,16.70
2013,05,05,04,01,16.60
2013,05,05,04,02,16.60
2013,05,05,04,03,16.60
2013,05,05,04,04,16.50
2013,05,05,04,05,16.40
2013,05,05,04,06,16.40
2013,05,05,04,07,16.40
2013,05,05,04,08,16.40
2013,05,05,04,09,16.40
2013,05,05,04,10,16.40
2013,05,05,04,11,16.30
2013,05,05,04,12,16.30
2013,05,05,04,13,16.30
2013,05,05,04,14,16.20
2013,05,05,04,15,16.20
2013,05,05,04,16,16.20
2013,05,05,04,17,16.20
2013,05,05,04,18,16.20
2013,05,05,04,19,16.20
2013,05,05,04,20,16.20
2013,05,05,04,21,16.10
2013,05,05,04,22,16.10
2013,05,05,04,23,16.20
2013,05,05,04,24,16.20
2013,05,05,04,25,16.20
2013,05,05,04,26,16.30
2013,05,05,04,27,16.30
2013,05,05,04,28,16.30
2013,05,05,04,29,16.30
2013,05,05,04,30,16.30
2013,05,05,04,31,16.40
2013,05,05,04,32,16.40
2013,05,05,04,33,16.40
2013,05,05,04,34,16.40
2013,05,05,04,35,16.40
2013,05,05,04,36,16.40
2013,05,05,04,37,16.40
2013,05,05,04,38,16.40
2013,05,05,04,39,16.40
2013,05,05,04,40,16.40
2013,05,05,04,41,16.30
2013,05,05,04,42,16.30
2013,05,05,04,43,16.30
2013,05,05,04,44,16.30
2013,05,05,04,45,16.30
2013,05,05,04,46,16.30
2013,05,05,04,47,16.20
2013,05,05,04,48,16.20
2013,05,05,04,49,16.20
2013,05,05,04,50,16.10
2013,05,05,04,51,16.10
2013,05,05,04,52,16.10
2013,05,05,04,53,16.10
2013,05,05,04,54,16.10
2013,05,05,04,55,16.10
2013,05,05,04,56,16.10
2013,05,05,04,57,16.10
2013,05,05,04,58,16.00
2013,05,05,04,59,15.90
2013,05,05,05,00,15.90
2013,05,05,05,01,15.80
2013,05,05,05,02,15.80
2013,05,05,05,03,15.80
2013,05,05,05,04,15.80
2013,05,05,05,05,15.70
2013,05,05,05,06,15.70
2013,05,05,05,07,15.70
2013,05,05,05,08,15.60
2013,05,05,05,09,15.60
2013,05,05,05,10,15.60
2013,05,05,05,11,15.60
2013,05,05,05,12,15.60
2013,05,05,05,13,15.60
2013,05,05,05,14,15.60
2013,05,05,05,15,15.60
2013,05,05,05,16,15.60
2013,05,05,05,17,15.60
2013,05,05,05,18,15.60
2013,05,05,05,19,15.60
2013,05,05,05,20,15.60
2013,05,05,05,21,15.60
2013,05,05,05,22,15.60
2013,05,05,05,23,15.60
2013,05,05,05,24,15.60
2013,05,05,05,25,15.60
2013,05,05,05,26,15.60
2013,05,05,05,27,15.60
2013,05,05,05,28,15.60
2013,05,05,05,29,15.60
2013,05,05,05,30,15.60
2013,05,05,05,31,15.60
2013,05,05,05,32,15.60
2013,05,05,05,33,15.60
2013,05,05,05,34,15.60
2013,05,05,05,35,15.60
2013,05,05,05,36,15.60
2013,05,05,05,37,15.60
2013,05,05,05,38,15.60
2013,05,05,05,39,15.60
2013,05,05,05,40,15.50
2013,05,05,05,41,15.50
2013,05,05,05,42,15.50
2013,05,05,05,43,15.40
2013,05,05,05,44,15.40
2013,05,05,05,45,15.40
2013,05,05,05,46,15.30
2013,05,05,05,47,15.30
2013,05,05,05,48,15.30
2013,05,05,05,49,15.30
2013,05,05,05,50,15.20
2013,05,05,05,51,15.20
2013,05,05,05,52,15.20
2013,05,05,05,53,15.10
2013,05,05,05,54,15.10
2013,05,05,05,55,15.10
2013,05,05,05,56,15.00
2013,05,05,05,57,15.00
2013,05,05,05,58,14.90
2013,05,05,05,59,14.90
2013,05,05,06,00,14.80
2013,05,05,06,01,14.80
2013,05,05,06,02,14.80
2013,05,05,06,03,14.80
2013,05,05,06,04,14.80
2013,05,05,06,05,14.70
2013,05,05,06,06,14.70
2013,05,05,06,07,14.70
2013,05,05,06,08,14.60
2013,05,05,06,09,14.60
2013,05,05,06,10,14.60
2013,05,05,06,11,14.50
2013,05,05,06,12,14.50
2013,05,05,06,13,14.50
2013,05,05,06,14,14.40
2013,05,05,06,15,14.40
2013,05,05,06,16,14.40
2013,05,05,06,17,14.40
2013,05,05,06,18,14.30
2013,05,05,06,19,14.30
2013,05,05,06,20,14.30
2013,05,05,06,21,14.30
2013,05,05,06,22,14.30
2013,05,05,06,23,14.30
2013,05,05,06,24,14.30
2013,05,05,06,25,14.30
2013,05,05,06,26,14.30
2013,05,05,06,27,14.30
2013,05,05,06,28,14.40
2013,05,05,06,29,14.40
2013,05,05,06,30,14.50
2013,05,05,06,31,14.50
2013,05,05,06,32,14.60
2013,05,05,06,33,14.60
2013,05,05,06,34,14.70
2013,05,05,06,35,14.80
2013,05,05,06,36,14.80
2013,05,05,06,37,14.90
2013,05,05,06,38,14.90
2013,05,05,06,39,15.00
2013,05,05,06,40,15.00
2013,05,05,06,41,15.10
2013,05,05,06,42,15.10
2013,05,05,06,43,15.20
2013,05,05,06,44,15.20
2013,05,05,06,45,15.20
2013,05,05,06,46,15.30
2013,05,05,06,47,15.30
2013,05,05,06,48,15.30
2013,05,05,06,49,15.30
2013,05,05,06,50,15.30
2013,05,05,06,51,15.30
2013,05,05,06,52,15.30
2013,05,05,06,53,15.30
2013,05,05,06,54,15.30
2013,05,05,06,55,15.40
2013,05,05,06,56,15.40
2013,05,05,06,57,15.40
2013,05,05,06,58,15.40
2013,05,05,06,59,15.50
2013,05,05,07,00,15.50
2013,05,05,07,01,15.50
2013,05,05,07,02,15.60
2013,05,05,07,03,15.60
2013,05,05,07,04,15.60
2013,05,05,07,05,15.70
2013,05,05,07,06,15.80
2013,05,05,07,07,15.80
2013,05,05,07,08,15.80
2013,05,05,07,09,15.90
2013,05,05,07,10,15.90
2013,05,05,07,11,15.90
2013,05,05,07,12,16.10
2013,05,05,07,13,16.10
2013,05,05,07,14,16.10
2013,05,05,07,15,16.10
2013,05,05,07,16,16.10
2013,05,05,07,17,16.10
2013,05,05,07,18,16.10
2013,05,05,07,19,16.10
2013,05,05,07,20,16.10
2013,05,05,07,21,16.10
2013,05,05,07,22,16.10
2013,05,05,07,23,16.10
2013,05,05,07,24,16.10
2013,05,05,07,25,16.10
2013,05,05,07,26,16.10
2013,05,05,07,27,16.10
2013,05,05,07,28,16.10
2013,05,05,07,29,16.10
2013,05,05,07,30,16.20
2013,05,05,07,31,16.20
2013,05,05,07,32,16.20
2013,05,05,07,33,16.30
2013,05,05,07,34,16.30
2013,05,05,07,35,16.30
2013,05,05,07,36,16.40
2013,05,05,07,37,16.40
2013,05,05,07,38,16.40
2013,05,05,07,39,16.40
2013,05,05,07,40,16.50
2013,05,05,07,41,16.60
2013,05,05,07,42,16.60
2013,05,05,07,43,16.60
2013,05,05,07,44,16.60
2013,05,05,07,45,16.60
2013,05,05,07,46,16.70
2013,05,05,07,47,16.70
2013,05,05,07,48,16.70
2013,05,05,07,49,16.70
2013,05,05,07,50,16.70
2013,05,05,07,51,16.70
2013,05,05,07,52,16.80
2013,05,05,07,53,16.80
2013,05,05,07,54,16.80
2013,05,05,07,55,16.90
2013,05,05,07,56,16.90
2013,05,05,07,57,17.00
2013,05,05,07,58,17.00
2013,05,05,07,59,17.00
2013,05,05,08,00,17.00
2013,05,05,08,01,17.10
2013,05,05,08,02,17.10
2013,05,05,08,03,17.20
2013,05,05,08,04,17.20
2013,05,05,08,05,17.20
2013,05,05,08,06,17.30
2013,05,05,08,07,17.30
2013,05,05,08,08,17.30
2013,05,05,08,09,17.40
2013,05,05,08,10,17.50
2013,05,05,08,11,17.50
2013,05,05,08,12,17.50
2013,05,05,08,13,17.60
2013,05,05,08,14,17.60
2013,05,05,08,15,17.70
2013,05,05,08,16,17.80
2013,05,05,08,17,17.80
2013,05,05,08,18,17.90
2013,05,05,08,19,17.90
2013,05,05,08,20,17.90
2013,05,05,08,21,18.10
2013,05,05,08,22,18.10
2013,05,05,08,23,18.20
2013,05,05,08,24,18.20
2013,05,05,08,25,18.30
2013,05,05,08,26,18.30
2013,05,05,08,27,18.40
2013,05,05,08,28,18.40
2013,05,05,08,29,18.50
2013,05,05,08,30,18.50
2013,05,05,08,31,18.50
2013,05,05,08,32,18.60
2013,05,05,08,33,18.60
2013,05,05,08,34,18.70
2013,05,05,08,35,18.70
2013,05,05,08,36,18.70
2013,05,05,08,37,18.70
2013,05,05,08,38,18.70
2013,05,05,08,39,18.80
2013,05,05,08,40,18.70
2013,05,05,08,41,18.70
2013,05,05,08,42,18.70
2013,05,05,08,43,18.70
2013,05,05,08,44,18.70
2013,05,05,08,45,18.60
2013,05,05,08,46,18.60
2013,05,05,08,47,18.60
2013,05,05,08,48,18.60
2013,05,05,08,49,18.60
2013,05,05,08,50,18.60
2013,05,05,08,51,18.60
2013,05,05,08,52,18.60
2013,05,05,08,53,18.60
2013,05,05,08,54,18.60
2013,05,05,08,55,18.60
2013,05,05,08,56,18.60
2013,05,05,08,57,18.60
2013,05,05,08,58,18.60
2013,05,05,08,59,18.70
2013,05,05,09,00,18.70
2013,05,05,09,01,18.70
2013,05,05,09,02,18.70
2013,05,05,09,03,18.80
2013,05,05,09,04,18.80
2013,05,05,09,05,18.80
2013,05,05,09,06,18.80
2013,05,05,09,07,18.80
2013,05,05,09,08,18.80
2013,05,05,09,09,18.80
2013,05,05,09,10,18.80
2013,05,05,09,11,18.80
2013,05,05,09,12,18.80
2013,05,05,09,13,18.80
2013,05,05,09,14,18.80
2013,05,05,09,15,18.70
2013,05,05,09,16,18.70
2013,05,05,09,17,18.80
2013,05,05,09,18,18.80
2013,05,05,09,19,18.80
2013,05,05,09,20,18.90
2013,05,05,09,21,18.90
2013,05,05,09,22,19.00
2013,05,05,09,23,19.10
2013,05,05,09,24,19.10
2013,05,05,09,25,19.10
2013,05,05,09,26,19.10
2013,05,05,09,27,19.10
2013,05,05,09,28,19.20
2013,05,05,09,29,19.20
2013,05,05,09,30,19.20
2013,05,05,09,31,19.20
2013,05,05,09,32,19.20
2013,05,05,09,33,19.20
2013,05,05,09,34,19.20
2013,05,05,09,35,19.30
2013,05,05,09,36,19.30
2013,05,05,09,37,19.40
2013,05,05,09,38,19.40
2013,05,05,09,39,19.50
2013,05,05,09,40,19.60
2013,05,05,09,41,19.60
2013,05,05,09,42,19.70
2013,05,05,09,43,19.70
2013,05,05,09,44,19.80
2013,05,05,09,45,19.80
2013,05,05,09,46,19.90
2013,05,05,09,47,19.90
2013,05,05,09,48,19.90
2013,05,05,09,49,19.90
2013,05,05,09,50,19.90
2013,05,05,09,51,19.90
2013,05,05,09,52,19.90
2013,05,05,09,53,19.90
2013,05,05,09,54,19.90
2013,05,05,09,55,19.90
2013,05,05,09,56,19.90
2013,05,05,09,57,19.90
2013,05,05,09,58,19.90
2013,05,05,09,59,20.00
2013,05,05,10,00,20.10
2013,05,05,10,01,20.10
2013,05,05,10,02,20.20
2013,05,05,10,03,20.20
2013,05,05,10,04,20.30
2013,05,05,10,05,20.40
2013,05,05,10,06,20.50
2013,05,05,10,07,20.60
2013,05,05,10,08,20.60
2013,05,05,10,09,20.60
2013,05,05,10,10,20.50
2013,05,05,10,11,20.40
2013,05,05,10,12,20.30
2013,05,05,10,13,20.20
2013,05,05,10,14,20.20
2013,05,05,10,15,20.20
2013,05,05,10,16,20.20
2013,05,05,10,17,20.20
2013,05,05,10,18,20.20
2013,05,05,10,19,20.20
2013,05,05,10,20,20.10
2013,05,05,10,21,20.10
2013,05,05,10,22,20.10
2013,05,05,10,23,20.00
2013,05,05,10,24,19.90
2013,05,05,10,25,19.90
2013,05,05,10,26,19.90
2013,05,05,10,27,19.80
2013,05,05,10,28,19.70
2013,05,05,10,29,19.70
2013,05,05,10,30,19.70
2013,05,05,10,31,19.70
2013,05,05,10,32,19.80
2013,05,05,10,33,19.70
2013,05,05,10,34,19.60
2013,05,05,10,35,19.60
2013,05,05,10,36,19.60
2013,05,05,10,37,19.60
2013,05,05,10,38,19.50
2013,05,05,10,39,19.40
2013,05,05,10,40,19.20
2013,05,05,10,41,19.10
2013,05,05,10,42,19.10
2013,05,05,10,43,19.10
2013,05,05,10,44,19.20
2013,05,05,10,45,19.30
2013,05,05,10,46,19.40
2013,05,05,10,47,19.50
2013,05,05,10,48,19.60
2013,05,05,10,49,19.70
2013,05,05,10,50,19.90
2013,05,05,10,51,20.00
2013,05,05,10,52,20.10
2013,05,05,10,53,20.20
2013,05,05,10,54,20.20
2013,05,05,10,55,20.40
2013,05,05,10,56,20.50
2013,05,05,10,57,20.60
2013,05,05,10,58,20.70
2013,05,05,10,59,20.80
2013,05,05,11,00,20.90
2013,05,05,11,01,21.10
2013,05,05,11,02,21.10
2013,05,05,11,03,21.10
2013,05,05,11,04,21.20
2013,05,05,11,05,21.20
2013,05,05,11,06,21.20
2013,05,05,11,07,21.10
2013,05,05,11,08,21.00
2013,05,05,11,09,20.90
2013,05,05,11,10,20.80
2013,05,05,11,11,20.80
2013,05,05,11,12,20.90
2013,05,05,11,13,20.90
2013,05,05,11,14,20.90
2013,05,05,11,15,20.90
2013,05,05,11,16,21.00
2013,05,05,11,17,21.00
2013,05,05,11,18,21.00
2013,05,05,11,19,21.10
2013,05,05,11,20,21.10
2013,05,05,11,21,21.30
2013,05,05,11,22,21.30
2013,05,05,11,23,21.40
2013,05,05,11,24,21.50
2013,05,05,11,25,21.60
2013,05,05,11,26,21.60
2013,05,05,11,27,21.60
2013,05,05,11,28,21.60
2013,05,05,11,29,21.70
2013,05,05,11,30,21.70
2013,05,05,11,31,21.80
2013,05,05,11,32,21.80
2013,05,05,11,33,21.80
2013,05,05,11,34,21.90
2013,05,05,11,35,22.10
2013,05,05,11,36,22.20
2013,05,05,11,37,22.30
2013,05,05,11,38,22.40
2013,05,05,11,39,22.40
2013,05,05,11,40,22.40
2013,05,05,11,41,22.50
2013,05,05,11,42,22.40
2013,05,05,11,43,22.30
2013,05,05,11,44,22.30
2013,05,05,11,45,22.30
2013,05,05,11,46,22.30
2013,05,05,11,47,22.30
2013,05,05,11,48,22.40
2013,05,05,11,49,22.40
2013,05,05,11,50,22.40
2013,05,05,11,51,22.40
2013,05,05,11,52,22.40
2013,05,05,11,53,22.50
2013,05,05,11,54,22.60
2013,05,05,11,55,22.50
2013,05,05,11,56,22.40
2013,05,05,11,57,22.30
2013,05,05,11,58,22.40
2013,05,05,11,59,22.40
2013,05,05,12,00,22.50
2013,05,05,12,01,22.50
2013,05,05,12,02,22.60
2013,05,05,12,03,22.60
2013,05,05,12,04,22.70
2013,05,05,12,05,22.80
2013,05,05,12,06,22.80
2013,05,05,12,07,22.80
2013,05,05,12,08,22.90
2013,05,05,12,09,22.80
2013,05,05,12,10,22.90
2013,05,05,12,11,22.90
2013,05,05,12,12,22.90
2013,05,05,12,13,23.00
2013,05,05,12,14,23.10
2013,05,05,12,15,23.20
2013,05,05,12,16,23.10
2013,05,05,12,17,23.10
2013,05,05,12,18,23.00
2013,05,05,12,19,22.90
2013,05,05,12,20,22.90
2013,05,05,12,21,22.80
2013,05,05,12,22,22.70
2013,05,05,12,23,22.70
2013,05,05,12,24,22.70
2013,05,05,12,25,22.70
2013,05,05,12,26,22.70
2013,05,05,12,27,22.70
2013,05,05,12,28,22.70
2013,05,05,12,29,22.70
2013,05,05,12,30,22.80
2013,05,05,12,31,22.80
2013,05,05,12,32,22.80
2013,05,05,12,33,22.90
2013,05,05,12,34,22.90
2013,05,05,12,35,23.00
2013,05,05,12,36,23.10
2013,05,05,12,37,23.20
2013,05,05,12,38,23.30
2013,05,05,12,39,23.30
2013,05,05,12,40,23.30
2013,05,05,12,41,23.30
2013,05,05,12,42,23.30
2013,05,05,12,43,23.30
2013,05,05,12,44,23.20
2013,05,05,12,45,23.30
2013,05,05,12,46,23.30
2013,05,05,12,47,23.30
2013,05,05,12,48,23.20
2013,05,05,12,49,23.30
2013,05,05,12,50,23.30
2013,05,05,12,51,23.30
2013,05,05,12,52,23.30
2013,05,05,12,53,23.40
2013,05,05,12,54,23.40
2013,05,05,12,55,23.50
2013,05,05,12,56,23.60
2013,05,05,12,57,23.70
2013,05,05,12,58,23.80
2013,05,05,12,59,23.70
2013,05,05,13,00,23.60
2013,05,05,13,01,23.40
2013,05,05,13,02,23.30
2013,05,05,13,03,23.20
2013,05,05,13,04,23.20
2013,05,05,13,05,23.20
2013,05,05,13,06,23.20
2013,05,05,13,07,23.20
2013,05,05,13,08,23.20
2013,05,05,13,09,23.20
2013,05,05,13,10,23.20
2013,05,05,13,11,23.30
2013,05,05,13,12,23.10
2013,05,05,13,13,23.10
2013,05,05,13,14,23.10
2013,05,05,13,15,23.00
2013,05,05,13,16,22.90
2013,05,05,13,17,23.00
2013,05,05,13,18,23.10
2013,05,05,13,19,23.00
2013,05,05,13,20,22.90
2013,05,05,13,21,22.90
2013,05,05,13,22,22.90
2013,05,05,13,23,22.90
2013,05,05,13,24,22.90
2013,05,05,13,25,23.00
2013,05,05,13,26,23.10
2013,05,05,13,27,23.10
2013,05,05,13,28,23.20
2013,05,05,13,29,23.20
2013,05,05,13,30,23.20
2013,05,05,13,31,23.20
2013,05,05,13,32,23.30
2013,05,05,13,33,23.30
2013,05,05,13,34,23.40
2013,05,05,13,35,23.60
2013,05,05,13,36,23.70
2013,05,05,13,37,23.60
2013,05,05,13,38,23.60
2013,05,05,13,39,23.50
2013,05,05,13,40,23.50
2013,05,05,13,41,23.60
2013,05,05,13,42,23.60
2013,05,05,13,43,23.60
2013,05,05,13,44,23.60
2013,05,05,13,45,23.70
2013,05,05,13,46,23.70
2013,05,05,13,47,23.90
2013,05,05,13,48,24.00
2013,05,05,13,49,24.10
2013,05,05,13,50,24.20
2013,05,05,13,51,24.20
2013,05,05,13,52,24.30
2013,05,05,13,53,24.30
2013,05,05,13,54,24.40
2013,05,05,13,55,24.50
2013,05,05,13,56,24.60
2013,05,05,13,57,24.60
2013,05,05,13,58,24.50
2013,05,05,13,59,24.50
2013,05,05,14,00,24.40
2013,05,05,14,01,24.40
2013,05,05,14,02,24.40
2013,05,05,14,03,24.30
2013,05,05,14,04,24.30
2013,05,05,14,05,24.20
2013,05,05,14,06,24.20
2013,05,05,14,07,24.30
2013,05,05,14,08,24.30
2013,05,05,14,09,24.30
2013,05,05,14,10,24.40
2013,05,05,14,11,24.40
2013,05,05,14,12,24.40
2013,05,05,14,13,24.30
2013,05,05,14,14,24.40
2013,05,05,14,15,24.50
2013,05,05,14,16,24.50
2013,05,05,14,17,24.50
2013,05,05,14,18,24.40
2013,05,05,14,19,24.40
2013,05,05,14,20,24.40
2013,05,05,14,21,24.50
2013,05,05,14,22,24.60
2013,05,05,14,23,24.60
2013,05,05,14,24,24.60
2013,05,05,14,25,24.50
2013,05,05,14,26,24.50
2013,05,05,14,27,24.60
2013,05,05,14,28,24.60
2013,05,05,14,29,24.70
2013,05,05,14,30,24.80
2013,05,05,14,31,24.90
2013,05,05,14,32,24.90
2013,05,05,14,33,24.90
2013,05,05,14,34,25.00
2013,05,05,14,35,25.00
2013,05,05,14,36,25.00
2013,05,05,14,37,25.00
2013,05,05,14,38,24.90
2013,05,05,14,39,24.90
2013,05,05,14,40,25.00
2013,05,05,14,41,25.00
2013,05,05,14,42,25.10
2013,05,05,14,43,25.10
2013,05,05,14,44,25.10
2013,05,05,14,45,25.10
2013,05,05,14,46,25.10
2013,05,05,14,47,25.00
2013,05,05,14,48,25.00
2013,05,05,14,49,25.00
2013,05,05,14,50,25.00
2013,05,05,14,51,25.10
2013,05,05,14,52,25.20
2013,05,05,14,53,25.40
2013,05,05,14,54,25.50
2013,05,05,14,55,25.60
2013,05,05,14,56,25.60
2013,05,05,14,57,25.50
2013,05,05,14,58,25.40
2013,05,05,14,59,25.30
2013,05,05,15,00,25.30
2013,05,05,15,01,25.40
2013,05,05,15,02,25.50
2013,05,05,15,03,25.70
2013,05,05,15,04,25.70
2013,05,05,15,05,25.60
2013,05,05,15,06,25.60
2013,05,05,15,07,25.60
2013,05,05,15,08,25.60
2013,05,05,15,09,25.60
2013,05,05,15,10,25.60
2013,05,05,15,11,25.60
2013,05,05,15,12,25.50
2013,05,05,15,13,25.50
2013,05,05,15,14,25.50
2013,05,05,15,15,25.60
2013,05,05,15,16,25.60
2013,05,05,15,17,25.70
2013,05,05,15,18,25.70
2013,05,05,15,19,25.70
2013,05,05,15,20,25.70
2013,05,05,15,21,25.70
2013,05,05,15,22,25.70
2013,05,05,15,23,25.60
2013,05,05,15,24,25.60
2013,05,05,15,25,25.60
2013,05,05,15,26,25.60
2013,05,05,15,27,25.70
2013,05,05,15,28,25.80
2013,05,05,15,29,25.90
2013,05,05,15,30,25.90
2013,05,05,15,31,25.90
2013,05,05,15,32,25.90
2013,05,05,15,33,25.90
2013,05,05,15,34,25.90
2013,05,05,15,35,25.90
2013,05,05,15,36,26.00
2013,05,05,15,37,25.90
2013,05,05,15,38,25.90
2013,05,05,15,39,25.90
2013,05,05,15,40,25.90
2013,05,05,15,41,25.90
2013,05,05,15,42,25.90
2013,05,05,15,43,25.90
2013,05,05,15,44,25.90
2013,05,05,15,45,25.90
2013,05,05,15,46,26.00
2013,05,05,15,47,26.10
2013,05,05,15,48,26.10
2013,05,05,15,49,26.20
2013,05,05,15,50,26.40
2013,05,05,15,51,26.40
2013,05,05,15,52,26.40
2013,05,05,15,53,26.40
2013,05,05,15,54,26.40
2013,05,05,15,55,26.40
2013,05,05,15,56,26.40
2013,05,05,15,57,26.40
2013,05,05,15,58,26.40
2013,05,05,15,59,26.40
2013,05,05,16,00,26.40
2013,05,05,16,01,26.50
2013,05,05,16,02,26.60
2013,05,05,16,03,26.60
2013,05,05,16,04,26.60
2013,05,05,16,05,26.70
2013,05,05,16,06,26.70
2013,05,05,16,07,26.60
2013,05,05,16,08,26.60
2013,05,05,16,09,26.60
2013,05,05,16,10,26.60
2013,05,05,16,11,26.60
2013,05,05,16,12,26.60
2013,05,05,16,13,26.70
2013,05,05,16,14,26.70
2013,05,05,16,15,26.70
2013,05,05,16,16,26.80
2013,05,05,16,17,26.80
2013,05,05,16,18,26.90
2013,05,05,16,19,26.90
2013,05,05,16,20,26.90
2013,05,05,16,21,26.90
2013,05,05,16,22,26.80
2013,05,05,16,23,26.80
2013,05,05,16,24,26.70
2013,05,05,16,25,26.80
2013,05,05,16,26,26.80
2013,05,05,16,27,26.80
2013,05,05,16,28,26.80
2013,05,05,16,29,26.80
2013,05,05,16,30,26.80
2013,05,05,16,31,26.80
2013,05,05,16,32,26.90
2013,05,05,16,33,26.90
2013,05,05,16,34,27.00
2013,05,05,16,35,27.10
2013,05,05,16,36,27.20
2013,05,05,16,37,27.30
2013,05,05,16,38,27.30
2013,05,05,16,39,27.40
2013,05,05,16,40,27.60
2013,05,05,16,41,27.60
2013,05,05,16,42,27.70
2013,05,05,16,43,27.70
2013,05,05,16,44,27.60
2013,05,05,16,45,27.60
2013,05,05,16,46,27.60
2013,05,05,16,47,27.60
2013,05,05,16,48,27.60
2013,05,05,16,49,27.70
2013,05,05,16,50,27.70
2013,05,05,16,51,27.80
2013,05,05,16,52,27.80
2013,05,05,16,53,27.90
2013,05,05,16,54,28.00
2013,05,05,16,55,28.00
2013,05,05,16,56,28.10
2013,05,05,16,57,28.10
2013,05,05,16,58,28.00
2013,05,05,16,59,28.00
2013,05,05,17,00,28.00
2013,05,05,17,01,28.10
2013,05,05,17,02,28.00
2013,05,05,17,03,28.10
2013,05,05,17,04,28.10
2013,05,05,17,05,28.10
2013,05,05,17,06,28.10
2013,05,05,17,07,28.10
2013,05,05,17,08,28.10
2013,05,05,17,09,28.10
2013,05,05,17,10,28.10
2013,05,05,17,11,28.10
2013,05,05,17,12,28.20
2013,05,05,17,13,28.20
2013,05,05,17,14,28.20
2013,05,05,17,15,28.10
2013,05,05,17,16,28.10
2013,05,05,17,17,28.10
2013,05,05,17,18,28.10
2013,05,05,17,19,28.10